ContactaLinksHome
    
DADES METEOROLÒGIQUES DE LES ÚLTIMES 24 HORES
 

Taire  Temperatura de l'aire  (ºC)
HumitatR  Humitat relativa de l'aire (%)
Pluja  Litres de pluja per metre cuadrat caiguts en 10 minuts (l/m²)
VelVent  Velocitat mitjana del vent (m/s)
DirVent  Direcció del vent  (º)
RadSolar  Intensitat de Radiació solar (w/m²)
PressAtm  Pressió atmosfèrica (mb)
  ***Dades sense verificar
DataTaireHumitatRPlujaVelVentDirVentRadSolarPressAtm
17/12/2018 6:10:009.6570,04.731601022
17/12/2018 6:00:009.4590,04.332801023
17/12/2018 5:50:009.6580,04.233001022
17/12/2018 5:40:009.9570,04.433001022
17/12/2018 5:30:0010.1550,04.732601022
17/12/2018 5:20:0010.2550,04.332701022
17/12/2018 5:10:0010.4550,04.431601022
17/12/2018 5:00:0010.5550,05.133701022
17/12/2018 4:50:0010.5550,04.434701022
17/12/2018 4:40:0010.6550,03.02801022
17/12/2018 4:30:0010.3570,03.73501021
17/12/2018 4:20:0010.4570,02.43701021
17/12/2018 4:10:0010.3560,02.932301021
17/12/2018 4:00:0010.7550,03.332901021
17/12/2018 3:50:0010.9550,03.4301021
17/12/2018 3:40:0011.1550,03.56301020
17/12/2018 3:30:0011.1560,03.65601020
17/12/2018 3:20:0011.2520,04.832401020
17/12/2018 3:10:0011.4520,05.931101020
17/12/2018 3:00:0011.5520,05.831801020
17/12/2018 2:50:0011.6500,07.732601020
17/12/2018 2:40:0011.6510,07.830901020
17/12/2018 2:30:0011.8510,06.832301019
17/12/2018 2:20:0011.8510,06.031701019
17/12/2018 2:10:0011.8510,06.132501019
17/12/2018 2:00:0011.9520,05.430601019
17/12/2018 1:50:0011.8530,05.532001019
17/12/2018 1:40:0011.5530,05.831001019
17/12/2018 1:30:0011.5540,05.330801018
17/12/2018 1:20:0011.6540,04.428101019
17/12/2018 1:10:0011.6530,05.230501019
17/12/2018 1:00:0011.8530,05.432201019
17/12/2018 0:50:0011.8530,05.432401019
17/12/2018 0:40:0011.9530,04.833701019
17/12/2018 0:30:0012.0530,05.333001018
17/12/2018 0:20:0012.1530,06.430101018
17/12/2018 0:10:0012.2530,08.031901017
17/12/2018 0:00:0012.4530,07.530401017
16/12/2018 23:50:0012.6530,06.929701017
16/12/2018 23:40:0012.7530,06.731701017
16/12/2018 23:30:0012.9540,06.731401018
16/12/2018 23:20:0013.0540,06.532601017
16/12/2018 23:10:0013.2540,06.232801017
16/12/2018 23:00:0013.5540,05.328301017
16/12/2018 22:50:0013.9520,05.628701017
16/12/2018 22:40:0014.2510,03.532301017
16/12/2018 22:30:0014.4500,04.127301017
16/12/2018 22:20:0014.4550,02.224101017
16/12/2018 22:10:0014.4550,00.911701017
16/12/2018 22:00:0014.4550,01.26001017
16/12/2018 21:50:0014.5520,01.728501017
16/12/2018 21:40:0014.6520,03.729901016
16/12/2018 21:30:0014.7510,04.726101016
16/12/2018 21:20:0014.7510,04.628001017
16/12/2018 21:10:0015.0510,04.329201017
16/12/2018 21:00:0015.1490,04.328301017
16/12/2018 20:50:0015.0510,03.530601016
16/12/2018 20:40:0014.8530,02.832901016
16/12/2018 20:30:0014.7560,03.229601016
16/12/2018 20:20:0014.7570,03.631101016
16/12/2018 20:10:0014.8580,03.925901016
16/12/2018 20:00:0014.6580,03.926101016
16/12/2018 19:50:0014.6590,04.625701016
16/12/2018 19:40:0014.3630,03.929201016
16/12/2018 19:30:0013.6650,02.631001016
16/12/2018 19:20:0013.4670,02.732201015
16/12/2018 19:10:0013.4680,01.7301015
16/12/2018 19:00:0013.4680,02.1201015
16/12/2018 18:50:0013.4690,01.4801015
16/12/2018 18:40:0013.4670,00.636001015
16/12/2018 18:30:0013.5670,00.632601015
16/12/2018 18:20:0013.5660,00.832501015
16/12/2018 18:10:0013.6660,01.233201015
16/12/2018 18:00:0013.8660,01.432501015
16/12/2018 17:50:0013.7660,02.1301015
16/12/2018 17:40:0013.7670,02.6101015
16/12/2018 17:30:0013.7660,02.3301015
16/12/2018 17:20:0013.7660,01.535101014
16/12/2018 17:10:0013.7660,01.331601014
16/12/2018 17:00:0013.7650,01.227001014
16/12/2018 16:50:0013.7650,01.130601014
16/12/2018 16:40:0013.8650,01.332401014
16/12/2018 16:30:0013.8640,02.133311014
16/12/2018 16:20:0013.9630,02.032441014
16/12/2018 16:10:0014.1620,02.5330131014
16/12/2018 16:00:0014.2610,01.9326231014
16/12/2018 15:50:0014.3610,01.9316331014
16/12/2018 15:40:0014.3610,01.8309381014
16/12/2018 15:30:0014.3600,02.5277331014
16/12/2018 15:20:0014.3600,01.9305351014
16/12/2018 15:10:0014.3600,02.6279631014
16/12/2018 15:00:0014.3610,02.92631011014
16/12/2018 14:50:0014.1610,03.4290921014
16/12/2018 14:40:0014.1610,02.8318821014
16/12/2018 14:30:0014.1620,03.0308951014
16/12/2018 14:20:0014.1610,03.3318931014
16/12/2018 14:10:0014.1610,04.03201111014
16/12/2018 14:00:0013.9620,04.63181051014
16/12/2018 13:50:0013.9630,03.8297941014
16/12/2018 13:40:0013.9630,02.93121001014
16/12/2018 13:30:0013.9630,02.4307901014
16/12/2018 13:20:0013.9630,02.3233841014
16/12/2018 13:10:0014.0640,02.62181251015
16/12/2018 13:00:0013.9640,01.03441311015
16/12/2018 12:50:0013.8640,01.53381001015
16/12/2018 12:40:0014.1630,02.4274821015
16/12/2018 12:30:0014.1610,02.4315721015
16/12/2018 12:20:0014.1610,03.4292781015
16/12/2018 12:10:0014.0610,02.9273831015
16/12/2018 12:00:0013.8620,04.1285521016
16/12/2018 11:50:0014.0620,04.7296681016
16/12/2018 11:40:0014.0600,07.0317811016
16/12/2018 11:30:0013.9610,05.3318801016
16/12/2018 11:20:0013.8620,05.6317591016
16/12/2018 11:10:0013.7650,05.4311721016
16/12/2018 11:00:0013.5660,03.5312611017
16/12/2018 10:50:0013.5640,03.0290741017
16/12/2018 10:40:0013.5640,02.33041221017
16/12/2018 10:30:0013.3640,02.53181541017
16/12/2018 10:20:0013.1640,02.53101621017
16/12/2018 10:10:0012.9650,03.03181201017
16/12/2018 10:00:0013.1650,03.22742121017
16/12/2018 9:50:0013.3650,01.72631961017
16/12/2018 9:40:0013.0650,01.53181491017
16/12/2018 9:30:0012.9670,01.52732461017
16/12/2018 9:20:0012.7670,01.532351017
16/12/2018 9:10:0012.7670,02.13101091017
16/12/2018 9:00:0012.8680,02.8302861017
16/12/2018 8:50:0012.9650,01.911841017
16/12/2018 8:40:0012.9650,02.7344421017
16/12/2018 8:30:0012.7660,02.2344341017
16/12/2018 8:20:0012.8650,03.0281171017
16/12/2018 8:10:0013.1640,02.2275191016
16/12/2018 8:00:0013.0650,03.2319271017
16/12/2018 7:50:0012.5670,03.1303721016
16/12/2018 7:40:0012.3680,03.1319571016
16/12/2018 7:30:0012.1680,02.5302351016
16/12/2018 7:20:0012.2680,02.8292161016
16/12/2018 7:10:0012.2680,02.328951017
16/12/2018 7:00:0012.2690,02.829911016
16/12/2018 6:50:0012.0690,02.029601016
16/12/2018 6:40:0012.2670,02.331501016
16/12/2018 6:30:0012.4670,01.633601016
16/12/2018 6:20:0012.7670,01.936001016

ÚLTIMES FOTOS WEBCAM
Imatges del Pont
ÚLTIMES DADES

17/12/2018  
7:10h Local  (6:10 GMT)
 
 Velocitat mitjana del Vent
   4,7 m/s
 Direcció del Vent
   316º
 Humitat Relativa
   57 %
 Temperatura Aparent
   7,1 ºC
 Pluja Acumulada
   0,0 l/m²
      
 Temperatura de l'aigua    N/A
 Alçada d'ona    N/A
 Direcció d'ona    N/A
 Velocitat del corrent    N/A
 Direcció del corrent    N/A